Theta_e
319 313 309 310 298 297 295 292 294 298 302 305 306 307 304 303 302 298 310 318 323 325 331 334 338 338 335 333 332 331 334 331 331 330 329 327 328 327 327 326 326 325 326 328 324 325 324 324 321
311 312 309 305 292 286 290 296 294 298 305 305 303 305 303 302 306 307 312 320 325 328 330 331 337 338 335 333 332 331 335 331 329 329 330 328 327 326 326 326 325 325 325 325 324 324 324 323 322
308 309 299 298 292 289 289 295 298 303 304 304 300 303 302 302 305 310 313 321 324 325 327 333 337 338 337 334 332 331 331 329 328 329 328 327 326 326 325 325 324 324 324 324 323 323 322 322 321
303 302 299 293 291 294 293 296 302 301 302 303 302 300 302 307 306 309 318 320 321 323 328 334 338 338 337 335 331 330 331 332 329 327 327 326 326 325 325 324 324 323 323 323 322 323 321 319 321
301 297 291 289 290 291 295 300 303 302 302 300 300 298 301 306 310 315 318 321 321 323 328 332 336 337 336 333 331 331 328 331 328 328 326 325 324 324 323 323 322 322 321 321 321 321 319 318 319
295 294 287 286 289 292 295 300 303 302 304 299 299 300 301 306 311 312 320 320 323 326 328 331 331 332 333 333 332 331 329 328 326 326 325 325 324 323 322 322 321 321 320 319 318 318 319 317 318
293 290 286 287 289 292 296 303 302 300 300 300 303 298 299 304 310 314 318 319 322 323 329 330 330 329 329 330 330 330 328 328 326 326 324 323 323 322 321 320 320 319 318 317 316 316 316 314 315
295 292 287 288 288 290 297 301 304 303 299 301 302 298 297 304 309 314 317 317 318 320 326 327 327 327 326 325 326 327 326 324 326 323 323 320 322 321 321 320 319 318 316 315 313 312 312 311 311
298 290 287 289 290 292 299 301 302 303 300 298 300 300 302 310 310 313 314 314 313 317 322 326 324 323 323 323 321 322 323 323 323 321 319 314 309 309 309 315 317 316 314 312 309 308 307 306 306
294 289 290 295 295 296 301 302 302 300 298 297 299 302 306 308 309 310 312 313 313 312 318 323 322 321 321 321 315 314 317 317 315 313 311 308 306 306 308 311 316 314 311 308 306 304 302 293 287
293 291 293 296 298 300 299 301 303 299 296 300 299 301 306 306 307 308 312 313 313 313 317 320 320 320 318 315 311 309 308 307 308 309 305 305 304 304 302 300 299 298 297 291 293 290 287 287 286
290 294 296 297 298 297 298 301 300 300 302 302 302 304 306 305 306 307 308 311 310 309 312 318 317 316 314 314 311 307 306 305 304 304 304 302 301 299 298 296 295 293 289 287 287 286 286 286 287
290 293 296 297 298 297 301 301 300 300 303 301 304 305 305 305 307 308 308 310 310 309 311 316 315 313 312 312 308 306 305 304 304 303 303 302 300 298 297 294 291 290 288 286 286 286 286 286 286
291 293 295 296 296 297 299 298 301 303 300 301 303 303 305 305 306 306 306 306 307 309 310 315 313 313 311 310 309 307 305 304 302 302 302 301 300 298 297 294 292 289 287 287 287 286 286 286 287
292 288 290 291 293 294 299 295 297 301 299 300 301 302 303 305 306 305 307 306 308 308 309 313 313 312 311 309 309 307 306 305 302 302 301 301 300 298 297 294 292 290 287 287 287 287 287 287 287
289 287 284 289 293 296 298 289 298 301 298 298 299 299 302 303 305 306 307 308 308 307 307 311 314 311 310 309 309 307 306 304 303 302 301 301 300 298 295 294 292 290 287 287 287 286 286 286 286
285 280 283 287 294 294 296 292 298 299 297 299 297 299 301 302 303 305 306 307 307 307 306 309 311 310 309 308 308 306 305 304 303 301 301 300 299 298 295 293 292 289 287 287 287 286 286 285 286
280 281 284 284 289 293 292 294 296 296 295 298 297 297 299 301 303 305 305 306 306 307 306 307 310 310 309 307 305 303 301 301 299 301 301 300 298 296 294 293 292 289 287 286 286 286 286 286 286
284 284 283 285 290 289 289 293 297 298 294 294 295 296 299 301 305 305 305 305 305 306 305 305 307 308 308 303 305 304 305 300 297 296 300 299 298 295 293 292 291 289 287 287 287 287 286 286 286
285 283 283 286 289 290 288 289 292 294 296 296 297 296 298 301 301 303 304 303 303 303 305 305 304 306 307 308 307 304 299 298 300 298 296 297 297 296 293 291 290 289 288 287 287 287 287 287 287
284 284 283 284 286 287 286 286 288 292 296 297 298 299 299 300 300 302 303 302 303 302 303 304 303 302 306 306 300 298 298 297 297 297 297 296 296 295 295 292 291 290 289 288 288 287 287 287 287
279 286 287 285 282 278 285 279 285 288 292 293 298 298 300 300 302 302 303 302 302 302 302 303 303 301 302 299 303 304 304 304 300 301 299 298 296 295 295 294 293 292 291 290 289 290 288 288 286
281 287 286 285 282 280 281 279 283 284 286 290 293 296 300 302 302 302 302 304 303 303 301 301 301 299 299 297 302 301 302 301 296 297 297 297 297 297 295 295 293 293 292 291 290 290 289 288 288
287 285 285 283 282 276 282 281 281 284 286 287 292 292 296 299 301 303 303 305 303 303 300 299 296 295 296 296 297 297 298 294 294 294 297 296 296 297 296 296 295 294 294 292 292 291 290 289 289
286 282 275 274 274 276 279 280 285 287 288 289 290 290 291 295 299 300 300 302 302 301 300 298 296 294 294 295 295 296 296 295 296 295 296 293 294 293 296 296 295 295 294 294 293 292 291 290 289
283 283 276 270 272 275 279 277 283 289 294 294 290 289 289 293 297 298 299 301 301 301 300 299 296 295 294 295 295 296 296 296 296 295 294 295 295 295 295 296 296 295 295 294 293 292 292 290 289
281 280 286 278 268 274 276 279 284 287 287 288 287 287 289 288 290 295 296 298 299 299 299 299 296 296 294 294 295 295 296 296 296 294 294 294 293 293 294 294 294 294 294 294 293 294 292 291 290
285 286 280 279 267 269 275 276 279 282 286 287 285 286 288 288 290 292 292 294 296 297 299 299 297 296 295 294 295 296 295 296 295 293 292 291 292 292 292 292 292 293 293 293 293 293 292 291 292
281 281 282 282 278 275 272 275 281 285 285 287 287 288 287 290 291 292 292 293 293 296 296 297 297 296 294 294 293 294 294 294 293 293 292 292 291 292 291 291 291 292 292 292 291 291 292 291 292
281 282 284 279 277 277 277 276 283 284 285 287 286 288 288 289 290 291 292 293 294 295 296 296 296 296 296 295 293 292 292 292 291 291 292 292 292 292 292 292 291 291 291 291 290 290 291 290 290
Wind_Speed
9 9 2 5 3 2 4 6 2 3 2 2 3 4 7 3 4 4 2 6 9 8 6 6 11 18 18 16 17 15 13 14 14 15 13 13 14 14 15 14 14 15 15 18 15 16 15 15 14
5 6 5 2 4 2 5 3 5 6 2 8 3 3 3 3 3 4 6 7 11 8 6 6 13 18 19 17 17 15 14 15 14 14 15 13 13 14 14 14 13 14 14 15 14 16 15 13 14
6 5 3 3 4 5 4 4 4 3 6 2 3 5 1 4 1 9 3 9 8 7 6 6 17 18 18 18 17 16 12 12 13 15 11 12 12 13 13 13 13 13 13 14 14 13 13 13 13
4 5 4 3 7 5 6 4 4 3 3 2 3 5 1 3 6 7 10 9 8 7 6 10 18 19 18 18 18 16 14 13 14 12 13 11 13 12 12 12 12 12 13 13 13 13 12 12 12
5 3 0 3 5 4 5 6 8 7 3 4 1 5 2 1 5 12 11 9 10 6 6 10 17 19 18 19 18 16 15 13 14 14 13 13 12 12 11 11 11 11 12 12 12 12 12 11 11
4 3 1 4 6 3 5 6 5 4 4 4 5 6 5 1 9 6 8 8 7 8 8 10 13 17 17 17 17 15 15 13 13 13 12 13 12 11 11 11 11 11 11 11 11 9 11 10 10
6 4 5 4 4 5 5 4 6 4 3 5 9 6 2 2 8 8 7 7 6 6 8 9 11 12 13 15 14 14 15 13 11 14 12 13 11 11 11 10 10 10 10 10 9 9 9 9 9
5 4 3 5 4 7 5 2 1 8 4 3 4 6 5 7 9 9 7 7 6 5 6 8 9 10 9 9 14 12 12 13 11 12 10 11 9 9 8 7 9 10 9 9 8 8 8 7 8
4 2 4 5 6 6 4 4 1 1 7 1 1 3 2 15 13 10 8 5 5 4 6 9 10 9 8 8 8 9 14 10 11 10 11 8 5 6 6 5 9 9 9 8 8 8 7 7 7
5 5 9 6 6 4 3 3 5 4 3 3 2 2 7 15 15 15 16 14 10 7 8 9 10 10 9 7 7 6 7 4 5 5 6 4 5 4 4 4 7 8 7 8 6 4 6 6 3
5 10 3 5 6 4 4 3 5 6 5 7 11 7 14 13 14 14 13 14 15 11 7 8 10 10 9 7 5 3 3 4 4 6 5 4 3 3 3 3 3 3 5 3 4 4 2 2 1
3 5 7 4 7 3 4 4 5 7 9 4 9 15 17 17 18 18 16 14 13 11 10 9 8 8 6 7 5 5 5 3 4 5 6 4 3 3 2 2 2 2 1 2 2 1 1 1 0
4 6 5 7 9 7 5 9 7 9 7 6 11 13 19 16 16 12 11 10 11 12 10 11 9 8 7 10 5 5 5 4 5 5 5 5 4 4 4 3 2 2 1 1 1 1 1 1 1
5 6 9 6 9 5 5 7 6 10 6 7 12 15 15 17 18 11 10 13 14 13 13 14 11 9 8 7 9 7 5 5 5 4 5 6 5 5 4 4 4 3 3 2 2 3 2 2 2
6 6 7 5 4 8 5 10 10 7 5 8 11 11 12 15 13 18 16 15 16 13 12 14 13 10 10 8 8 7 7 6 5 5 6 7 6 5 6 4 4 4 3 3 2 2 1 2 2
5 4 6 3 7 7 11 18 13 7 10 12 11 9 12 16 17 15 14 15 14 13 14 13 11 11 11 9 8 6 6 5 5 5 5 7 7 7 5 4 4 4 3 3 2 2 2 3 3
4 4 5 6 9 5 9 9 11 7 10 12 10 12 13 11 11 14 14 14 14 14 14 14 13 13 12 9 7 6 7 6 5 4 5 7 7 7 6 5 5 5 4 3 3 3 2 2 4
8 7 6 7 5 6 6 16 7 2 7 14 9 8 11 13 22 17 15 14 14 14 13 14 12 12 11 7 5 4 4 4 4 5 6 7 6 7 6 4 5 5 3 3 2 4 3 3 3
3 4 7 2 5 5 7 18 15 10 6 8 9 11 15 18 13 10 13 13 13 14 15 15 14 13 11 5 7 6 8 4 3 4 7 7 6 7 6 5 5 5 5 5 5 3 4 3 1
7 6 6 5 5 6 8 16 11 9 9 11 15 13 16 14 9 11 14 15 16 16 16 17 17 15 13 10 7 4 4 2 3 4 5 6 7 7 6 6 6 6 4 5 5 4 2 2 3
13 17 6 6 4 3 3 10 7 8 13 9 9 11 14 16 16 13 16 19 15 18 19 17 17 16 15 13 6 4 4 3 4 3 4 6 7 7 7 8 6 6 5 5 6 5 6 3 1
14 8 10 7 2 6 3 9 9 6 12 11 17 14 16 16 17 14 16 15 20 21 16 17 17 15 14 13 13 14 10 11 5 6 4 5 7 7 7 7 7 7 5 6 6 5 5 4 5
7 8 10 9 6 1 8 3 8 3 9 11 14 15 18 19 18 16 18 20 20 15 17 16 15 15 15 15 15 12 10 5 3 3 7 6 6 7 7 7 7 7 5 6 7 5 6 5 4
6 2 3 3 5 9 16 9 9 10 8 7 12 11 15 16 16 17 18 16 14 13 14 14 16 14 13 15 15 15 14 7 6 5 6 5 4 5 6 7 7 7 7 7 6 7 7 6 5
7 8 1 1 3 12 3 10 22 7 9 8 12 10 10 11 13 15 15 15 14 17 16 14 16 16 14 15 14 14 14 11 11 8 6 6 4 4 7 8 7 6 6 6 6 6 6 6 5
18 14 7 9 5 4 3 10 9 10 17 13 11 9 7 8 9 11 13 14 15 18 17 17 17 15 15 16 15 13 11 8 8 9 6 6 6 6 6 8 7 7 7 6 6 4 5 6 6
7 14 8 6 3 2 6 7 9 10 12 9 9 7 9 6 5 7 7 9 10 13 17 18 16 15 15 15 11 12 10 10 11 9 8 6 6 4 6 7 7 7 6 7 6 6 7 6 6
10 8 7 2 4 6 5 5 7 4 11 6 7 9 7 2 2 3 4 5 4 6 9 12 13 16 15 13 12 11 12 11 9 8 9 8 6 6 6 6 7 6 6 6 6 5 5 6 5
4 7 5 5 5 6 2 8 8 12 4 8 10 7 7 6 4 1 2 3 4 4 7 9 11 12 12 12 11 11 10 10 8 8 8 8 6 7 7 7 7 7 6 6 6 6 6 7 6
2 6 15 9 13 6 2 8 2 5 7 7 6 7 4 3 3 1 1 2 3 4 6 9 8 11 11 11 10 10 8 8 8 7 7 7 7 6 6 6 6 5 6 6 6 6 6 6 6
Wind_Direction
330 315 280 44 112 126 268 271 261 273 269 8 337 173 151 75 151 200 356 161 140 143 161 147 149 138 129 130 127 129 117 126 122 115 127 120 113 109 107 102 101 100 102 100 105 110 104 93 97
333 328 35 76 110 149 255 256 259 254 140 124 64 31 102 146 131 127 119 176 147 146 149 155 154 142 134 137 134 134 131 125 131 135 117 127 114 113 110 106 104 102 105 106 102 87 81 95 92
345 40 69 133 151 188 215 229 256 321 147 70 102 47 110 167 87 161 177 149 138 139 149 168 154 145 141 137 138 137 133 136 134 125 130 115 115 112 115 112 111 109 107 105 103 99 91 80 103
34 11 23 121 226 243 209 236 178 118 261 89 129 90 30 258 163 181 142 138 133 145 152 147 151 147 141 140 141 141 135 135 132 116 129 135 124 123 114 113 107 108 108 109 107 103 99 93 98
34 51 318 251 247 237 247 255 174 182 206 160 164 190 328 333 101 132 141 142 138 146 152 152 152 146 142 141 145 144 146 138 133 142 139 127 127 129 122 117 114 111 110 111 110 115 111 93 91
30 83 66 243 255 238 263 252 160 221 174 145 99 146 187 20 136 145 138 137 135 143 141 147 147 143 147 147 144 142 146 136 154 136 147 134 136 132 129 124 121 118 115 114 115 117 109 100 93
130 99 226 227 265 287 243 139 176 204 188 216 135 142 264 209 163 142 139 128 126 130 133 145 150 145 145 146 142 143 149 142 154 146 154 144 139 139 132 130 127 123 119 118 116 118 112 101 94
116 119 238 241 213 267 258 236 209 160 214 85 149 188 217 198 148 129 130 126 126 142 133 140 142 144 140 147 134 142 154 166 162 157 135 148 106 114 114 116 131 129 127 123 121 120 115 102 91
127 92 226 236 178 247 265 209 58 54 127 173 195 153 299 143 133 134 142 130 139 166 156 146 145 139 136 138 136 141 124 135 133 140 96 86 90 89 86 122 135 137 136 134 129 117 104 72 78
154 167 218 211 213 217 282 226 182 156 138 232 248 26 132 145 159 162 171 170 172 182 176 158 151 145 140 142 119 124 135 147 129 107 101 105 115 121 108 99 130 142 145 141 128 125 85 65 48
197 231 194 250 248 291 296 284 193 156 223 213 200 162 160 165 169 175 182 180 175 175 183 162 159 152 145 138 125 120 120 124 125 116 125 134 120 108 111 84 56 53 69 47 55 58 52 82 81
228 232 196 230 244 268 252 255 230 194 213 174 194 162 165 176 183 184 185 176 171 171 179 168 160 156 147 141 148 147 137 140 145 148 143 142 137 138 135 129 144 130 68 85 72 77 115 89 91
225 228 227 234 254 250 274 250 252 241 208 96 124 157 180 187 190 189 181 175 176 178 179 178 169 164 154 152 143 151 151 159 162 156 157 152 158 168 155 168 168 176 150 173 197 204 219 238 255
234 224 239 253 252 240 219 258 161 262 122 129 157 181 186 194 192 177 180 182 184 180 183 181 177 169 159 161 160 169 161 160 159 167 171 165 163 167 177 178 189 204 205 203 199 205 225 261 284
266 284 290 238 251 224 188 276 232 226 164 176 192 193 192 200 192 200 190 189 184 185 177 183 178 170 171 169 167 169 175 159 169 174 171 172 172 180 176 183 195 209 202 202 199 236 261 282 284
229 157 242 215 195 239 154 259 241 193 171 211 203 198 197 205 204 205 200 192 187 175 183 180 179 178 178 177 176 173 173 163 182 176 171 178 179 180 185 182 203 195 192 189 192 204 249 257 259
326 232 216 274 197 191 176 254 244 195 195 223 207 205 206 209 213 207 202 194 186 181 179 184 181 179 182 177 174 173 170 172 187 183 177 184 185 182 178 188 195 183 187 195 199 213 206 253 272
224 224 224 211 233 197 206 251 259 241 195 223 221 211 208 212 220 204 198 192 187 187 175 184 186 183 179 172 152 156 163 180 173 191 192 181 188 183 176 187 191 176 177 201 203 221 228 241 264
202 244 232 246 229 202 231 244 239 237 221 244 229 213 216 219 224 199 195 190 188 190 184 180 186 186 175 168 179 188 195 180 188 186 203 184 184 184 179 187 189 180 188 201 191 190 230 293 250
232 230 247 287 246 173 265 261 243 220 225 204 226 222 223 225 200 199 192 190 192 188 192 188 188 185 184 191 189 167 151 162 164 179 199 198 186 183 183 185 194 189 185 200 196 181 201 246 187
227 231 222 215 344 255 296 277 245 231 228 222 227 220 223 217 212 202 194 195 188 193 195 192 187 184 188 185 141 102 95 84 155 182 198 207 191 190 190 189 186 192 187 200 198 189 187 217 272
229 183 233 238 278 259 147 281 258 243 236 212 226 216 224 215 219 205 197 191 196 202 190 190 189 183 184 170 181 195 201 208 198 191 176 186 192 201 197 194 190 193 189 197 207 197 196 164 227
224 181 193 201 191 340 233 253 267 243 239 237 233 226 227 224 215 207 194 199 202 188 189 186 182 184 182 180 188 191 202 200 139 155 175 188 196 202 200 197 197 196 196 202 197 191 198 195 194
179 87 88 95 123 239 232 202 245 216 210 241 243 234 228 224 218 214 202 196 192 180 180 179 176 181 180 183 190 191 196 171 160 170 190 196 197 202 204 196 206 202 201 202 203 207 206 204 215
166 133 251 18 208 240 233 183 241 242 241 218 237 241 236 225 215 211 191 185 177 179 177 175 178 184 179 185 188 191 195 182 188 181 185 177 198 213 207 197 203 207 204 202 193 201 211 204 198
188 174 171 191 209 249 112 228 245 229 238 247 230 244 264 236 215 205 193 185 185 183 177 178 182 181 180 186 191 190 193 181 187 188 185 195 203 207 184 201 204 205 197 201 199 206 216 202 215
206 211 179 111 27 99 222 291 301 256 259 241 241 235 236 216 210 208 180 181 185 178 180 182 179 181 183 186 180 185 181 181 190 187 189 196 196 198 200 203 209 206 201 202 194 213 220 207 215
178 176 180 219 163 230 262 258 233 289 264 266 238 230 240 237 164 141 124 161 171 181 178 174 179 183 178 178 183 187 187 191 188 176 190 194 195 197 198 206 214 209 205 203 199 213 217 212 224
173 191 208 174 160 210 237 255 221 233 299 262 240 216 222 209 199 219 88 94 147 159 162 172 171 170 169 176 175 176 180 182 175 187 192 195 187 193 201 210 208 207 211 206 207 217 218 219 233
236 220 205 205 219 227 164 259 238 263 279 269 266 215 174 189 179 176 227 144 145 161 173 176 168 170 174 172 169 178 166 162 174 186 190 178 195 191 201 208 212 208 213 209 214 224 220 223 233